Showing default

EUTE 36D, 59346

Orbit data source: Space-Track

EUTE 36D, 59346 is a payload satellite owned by EutelsatSA (FR) in GEO that was launched on Sat, 30 Mar 2024 UTC via an FALCON 9 launch vehicle from the Air Force Eastern Test Range (AFETR). Payload-class satellites include a variety of spacecraft equipped with specific instruments for various scientific and technological missions. These include communications satellites like Starlink; space stations such as the ISS; scientific satellites like the Hubble; Earth observation satellites from companies like Planet Labs, Umbra, and HawkEye 360; GPS; miniature CubeSats for education and research; and military/defense satellites.

Not visible in the next 10 days
Identifier
59346, 2024-059A
Orbit
GEO
Country
Flag of UnknownUnknown / EUTE
Related business
Manufacturer
ADST/ADSUK
Mission
Operational Commercial Communications
Bus & Motor
EUROSTAR NEO, PPS-5000
Mass
5,000 kg wet, ~5,000 kg dry
Launch date (UTC)
2024-03-30 (1 year ago)
Launch vehicle
FALCON 9
Launch site
Air Force Eastern Test Range (AFETR)
Object type
Payload
Rocket body
Debris
Shape & HBR
Box + 2 Pan, 20.0 m
Radar Cross Section
58.239 m², Large (>1 m²)

Expand to show TLE details & history
Last TLE update: 17 hours ago

TLE from 17 hours ago
0 EUTE 36D
1 59346U 24059A   25261.16089389  .00000000  00000-0  00000-0 0  9997
2 59346   0.0264 168.2069 0000147 129.8397 153.0606  1.00268058  5415
Epoch: 2025-09-18T03:51Z
TLE epoch observation values (Epoch: 2025-09-18T03:51:41.232Z)
Latitude
-0.04837°
Longitude
35.86146°
Altitude
35,787.687 km
Speed
3.075 km/s
True Right ascension
06h 04m 26s
True Declination
0° 02' 54"
Sunlit
Object was in daylight at epoch
Visualization orbit readout
Latitude
Unknown
Longitude
Unknown
Altitude
Unknown
Speed
Unknown
Apparent Right ascension
Unknown
Apparent Declination
Unknown
Sunlit
N/A
Visualization observer readout
Local Sidereal Time
13:43:12
Azimuth
Unknown
Elevation
Unknown
Doppler factor
Unknown
Orbital elements
Apogee altitude
35,789.33 km
Perigee altitude
35,788.09 km
Semi-major axis
42,166.847 km
Eccentricity
0.00001
Inclination
0.0264°
RAAN
168.2069°
Arg. of periapsis
129.8397°
True anomaly
153.06136°
Mean anomaly
153.0606°
Eccentric anomaly
153.06098°
Mean motion
0.25066 °/min
Orbital period
1,436.2 mins
BSTAR
0
Loading maneuver chart data...
Computing Atmospheric mass density...
Loading historical data...
Loading historical data...
Loading historical data...
Loading historical data...
Loading historical data...
Loading historical data...
Loading historical data...
Other satellites on launch #59 in the year 2024 (2024-03-30 UTC)

Documentation

Showing up to 5 results
|